Location: Boursonne
(49.2024°N, 3.0468°E)
Time: 05:47:51
(UTC+00:00)

Cosmos 2278 Rocket - Pass Details

Date: 03 March 2021
Orbit: 841 x 845 km, 71.0° (Epoch: 11 April)

Event Time Altitude Azimuth Distance (km) Brightness Sun altitude
Rises 18:38:57 0° 335° (NNW) 3,417 5.8 -11.3°
Reaches altitude 10° 18:42:01 10° 351° (N) 2,478 4.8 -11.8°
Maximum altitude 18:46:19 21° 40° (NE) 1,796 3.6 -12.5°
Enters shadow 18:48:56 16° 75° (ENE) 2,072 3.7 -13.0°
